QPF
0.00 0.00 0.00 0.00 0.00 0.00 0.00 0.01 0.01 0.01 0.00 0.00 0.00 0.00 0.00 0.00 0.00 0.00 0.00 0.00 0.01 0.01 0.01 0.02 0.01 0.01 0.01 0.01 0.01 0.01 0.01 0.01 0.00 0.00 0.00 0.01 0.01 0.02
0.00 0.00 0.00 0.00 0.00 0.00 0.00 0.01 0.01 0.01 0.01 0.00 0.00 0.00 0.00 0.00 0.00 0.00 0.00 0.00 0.01 0.01 0.01 0.02 0.02 0.02 0.02 0.02 0.01 0.01 0.01 0.01 0.00 0.00 0.00 0.00 0.01 0.01
0.00 0.00 0.00 0.00 0.00 0.00 0.00 0.00 0.00 0.01 0.01 0.00 0.00 0.00 0.00 0.00 0.00 0.00 0.00 0.00 0.00 0.01 0.02 0.03 0.04 0.04 0.03 0.03 0.03 0.02 0.02 0.01 0.01 0.00 0.00 0.00 0.00 0.01
0.00 0.00 0.00 0.00 0.00 0.00 0.00 0.00 0.00 0.00 0.00 0.00 0.00 0.00 0.00 0.00 0.00 0.00 0.00 0.00 0.01 0.02 0.04 0.05 0.05 0.05 0.04 0.03 0.03 0.02 0.01 0.01 0.01 0.00 0.00 0.01 0.01 0.01
0.00 0.00 0.00 0.00 0.00 0.00 0.00 0.00 0.00 0.00 0.00 0.00 0.00 0.00 0.00 0.00 0.00 0.00 0.01 0.02 0.03 0.04 0.05 0.05 0.05 0.04 0.03 0.02 0.01 0.01 0.00 0.00 0.00 0.00 0.00 0.00 0.01 0.01
0.00 0.00 0.00 0.00 0.00 0.01 0.00 0.00 0.00 0.00 0.00 0.01 0.01 0.00 0.00 0.00 0.01 0.01 0.02 0.02 0.03 0.04 0.04 0.04 0.03 0.02 0.01 0.00 0.00 0.00 0.00 0.00 0.00 0.00 0.00 0.00 0.00 0.00
0.00 0.00 0.00 0.01 0.02 0.02 0.01 0.01 0.02 0.02 0.02 0.02 0.02 0.01 0.01 0.01 0.01 0.01 0.01 0.00 0.00 0.00 0.01 0.01 0.01 0.00 0.00 0.01 0.00 0.00 0.00 0.00 0.00 0.00 0.00 0.00 0.00 0.00
0.00 0.00 0.01 0.01 0.01 0.01 0.02 0.02 0.03 0.03 0.03 0.03 0.02 0.02 0.01 0.01 0.01 0.01 0.01 0.01 0.00 0.00 0.00 0.00 0.00 0.00 0.00 0.01 0.02 0.02 0.02 0.02 0.01 0.00 0.00 0.00 0.00 0.00
0.00 0.00 0.00 0.00 0.00 0.01 0.01 0.01 0.01 0.02 0.03 0.03 0.03 0.01 0.01 0.01 0.01 0.02 0.02 0.02 0.01 0.00 0.01 0.01 0.00 0.01 0.01 0.03 0.05 0.05 0.04 0.03 0.03 0.01 0.00 0.00 0.00 0.00
0.00 0.00 0.00 0.00 0.01 0.01 0.01 0.00 0.00 0.00 0.01 0.01 0.01 0.01 0.01 0.02 0.03 0.04 0.04 0.04 0.03 0.01 0.03 0.04 0.02 0.02 0.02 0.04 0.06 0.06 0.05 0.04 0.03 0.02 0.01 0.00 0.00 0.00
0.00 0.00 0.00 0.01 0.01 0.01 0.01 0.01 0.01 0.01 0.01 0.02 0.03 0.04 0.05 0.06 0.08 0.09 0.09 0.09 0.07 0.04 0.05 0.07 0.06 0.04 0.03 0.03 0.04 0.05 0.04 0.03 0.03 0.02 0.01 0.01 0.00 0.00
0.00 0.00 0.01 0.01 0.01 0.01 0.01 0.03 0.03 0.02 0.02 0.03 0.04 0.05 0.06 0.08 0.09 0.09 0.09 0.09 0.08 0.09 0.08 0.08 0.06 0.04 0.03 0.02 0.02 0.02 0.02 0.02 0.02 0.01 0.01 0.00 0.00 0.00
0.00 0.00 0.01 0.01 0.01 0.02 0.03 0.04 0.05 0.05 0.04 0.04 0.04 0.04 0.04 0.05 0.05 0.04 0.04 0.05 0.06 0.08 0.08 0.06 0.05 0.04 0.03 0.03 0.02 0.02 0.01 0.01 0.01 0.01 0.01 0.00 0.00 0.00
0.00 0.01 0.01 0.02 0.02 0.03 0.03 0.05 0.06 0.06 0.03 0.03 0.02 0.02 0.03 0.03 0.03 0.03 0.03 0.03 0.04 0.05 0.04 0.04 0.04 0.04 0.04 0.03 0.03 0.02 0.03 0.04 0.05 0.04 0.03 0.02 0.01 0.01
0.01 0.01 0.02 0.03 0.03 0.03 0.04 0.05 0.05 0.03 0.02 0.02 0.02 0.03 0.03 0.03 0.03 0.04 0.04 0.04 0.05 0.05 0.05 0.05 0.05 0.04 0.04 0.04 0.05 0.05 0.06 0.09 0.11 0.10 0.08 0.05 0.02 0.02
0.00 0.01 0.02 0.03 0.03 0.02 0.03 0.03 0.02 0.02 0.02 0.02 0.03 0.04 0.03 0.03 0.03 0.04 0.05 0.05 0.05 0.05 0.05 0.05 0.06 0.06 0.06 0.07 0.08 0.09 0.10 0.14 0.17 0.15 0.13 0.10 0.06 0.03
0.00 0.00 0.01 0.02 0.02 0.02 0.01 0.01 0.01 0.02 0.02 0.03 0.05 0.06 0.04 0.04 0.04 0.04 0.04 0.04 0.04 0.04 0.05 0.04 0.04 0.04 0.04 0.06 0.08 0.11 0.13 0.17 0.20 0.18 0.15 0.15 0.13 0.07
0.00 0.01 0.01 0.02 0.03 0.03 0.02 0.02 0.02 0.02 0.03 0.04 0.05 0.05 0.04 0.03 0.04 0.04 0.03 0.02 0.02 0.02 0.03 0.03 0.03 0.02 0.01 0.02 0.08 0.11 0.14 0.20 0.22 0.18 0.14 0.14 0.15 0.10
0.00 0.01 0.02 0.03 0.03 0.03 0.03 0.03 0.03 0.03 0.04 0.04 0.04 0.04 0.03 0.03 0.03 0.02 0.02 0.01 0.02 0.02 0.02 0.02 0.01 0.01 0.01 0.02 0.06 0.11 0.14 0.18 0.18 0.15 0.12 0.10 0.13 0.12
0.01 0.02 0.03 0.03 0.03 0.04 0.04 0.03 0.04 0.04 0.04 0.04 0.04 0.04 0.03 0.02 0.02 0.02 0.02 0.02 0.02 0.02 0.01 0.01 0.01 0.01 0.01 0.02 0.05 0.10 0.14 0.11 0.08 0.08 0.08 0.08 0.11 0.12
0.02 0.02 0.03 0.03 0.03 0.04 0.04 0.03 0.03 0.04 0.04 0.04 0.04 0.04 0.03 0.03 0.02 0.02 0.02 0.03 0.02 0.01 0.01 0.01 0.01 0.01 0.01 0.01 0.03 0.06 0.09 0.09 0.06 0.05 0.05 0.06 0.07 0.06
0.02 0.03 0.03 0.03 0.03 0.02 0.03 0.02 0.03 0.03 0.03 0.04 0.04 0.04 0.03 0.02 0.02 0.02 0.02 0.02 0.02 0.01 0.01 0.01 0.01 0.01 0.02 0.02 0.03 0.05 0.06 0.07 0.07 0.07 0.05 0.03 0.02 0.02
0.03 0.04 0.03 0.03 0.02 0.02 0.02 0.02 0.02 0.02 0.02 0.02 0.02 0.02 0.02 0.02 0.02 0.01 0.01 0.01 0.01 0.00 0.00 0.00 0.01 0.01 0.01 0.01 0.02 0.04 0.04 0.04 0.04 0.04 0.05 0.04 0.02 0.02
MSLP
1020.96 1020.95 1020.95 1020.93 1020.86 1020.73 1020.51 1020.20 1019.82 1019.39 1018.94 1018.48 1018.04 1017.63 1017.23 1016.85 1016.45 1016.04 1015.61 1015.15 1014.70 1014.26 1013.87 1013.54 1013.30 1013.14 1013.07 1013.08 1013.15 1013.25 1013.36 1013.45 1013.51 1013.51 1013.46 1013.33 1013.15 1012.94
1020.93 1020.84 1020.75 1020.65 1020.52 1020.33 1020.07 1019.75 1019.38 1018.97 1018.54 1018.11 1017.69 1017.28 1016.87 1016.47 1016.04 1015.60 1015.13 1014.65 1014.17 1013.72 1013.31 1012.97 1012.71 1012.53 1012.44 1012.42 1012.47 1012.56 1012.67 1012.79 1012.89 1012.96 1012.99 1012.96 1012.88 1012.74
1020.92 1020.76 1020.59 1020.40 1020.19 1019.95 1019.65 1019.32 1018.95 1018.57 1018.17 1017.77 1017.38 1016.99 1016.58 1016.16 1015.71 1015.24 1014.74 1014.23 1013.72 1013.24 1012.82 1012.45 1012.17 1011.96 1011.84 1011.79 1011.81 1011.88 1011.98 1012.11 1012.26 1012.39 1012.50 1012.58 1012.60 1012.56
1020.93 1020.70 1020.45 1020.18 1019.90 1019.59 1019.26 1018.91 1018.54 1018.17 1017.80 1017.44 1017.07 1016.70 1016.30 1015.87 1015.40 1014.90 1014.36 1013.82 1013.29 1012.79 1012.34 1011.95 1011.65 1011.42 1011.26 1011.18 1011.16 1011.20 1011.29 1011.43 1011.60 1011.79 1011.98 1012.15 1012.28 1012.35
1020.94 1020.64 1020.32 1019.98 1019.63 1019.25 1018.87 1018.49 1018.11 1017.75 1017.40 1017.05 1016.70 1016.34 1015.94 1015.50 1015.02 1014.49 1013.94 1013.37 1012.82 1012.30 1011.83 1011.44 1011.11 1010.86 1010.68 1010.56 1010.51 1010.53 1010.60 1010.74 1010.93 1011.17 1011.43 1011.69 1011.92 1012.10
1020.92 1020.57 1020.18 1019.77 1019.35 1018.91 1018.47 1018.04 1017.63 1017.25 1016.89 1016.55 1016.20 1015.83 1015.43 1014.99 1014.49 1013.95 1013.38 1012.80 1012.24 1011.73 1011.26 1010.87 1010.54 1010.28 1010.09 1009.96 1009.89 1009.88 1009.94 1010.07 1010.27 1010.53 1010.85 1011.19 1011.51 1011.79
1020.86 1020.45 1020.01 1019.54 1019.04 1018.53 1018.02 1017.54 1017.08 1016.66 1016.27 1015.90 1015.54 1015.16 1014.75 1014.30 1013.79 1013.25 1012.68 1012.11 1011.56 1011.06 1010.62 1010.24 1009.93 1009.69 1009.50 1009.36 1009.28 1009.26 1009.31 1009.43 1009.63 1009.92 1010.27 1010.66 1011.06 1011.42
1020.74 1020.29 1019.80 1019.26 1018.69 1018.11 1017.53 1016.97 1016.45 1015.98 1015.54 1015.13 1014.74 1014.35 1013.92 1013.46 1012.96 1012.43 1011.88 1011.33 1010.81 1010.34 1009.93 1009.59 1009.32 1009.10 1008.94 1008.81 1008.73 1008.71 1008.74 1008.85 1009.04 1009.32 1009.69 1010.11 1010.56 1011.00
1020.57 1020.08 1019.54 1018.95 1018.32 1017.67 1017.02 1016.39 1015.80 1015.26 1014.77 1014.32 1013.90 1013.48 1013.05 1012.59 1012.10 1011.59 1011.06 1010.55 1010.07 1009.65 1009.29 1008.99 1008.76 1008.58 1008.44 1008.33 1008.26 1008.22 1008.23 1008.32 1008.49 1008.75 1009.11 1009.54 1010.02 1010.51
1020.35 1019.83 1019.25 1018.62 1017.94 1017.23 1016.52 1015.83 1015.19 1014.59 1014.06 1013.57 1013.12 1012.69 1012.26 1011.81 1011.34 1010.85 1010.36 1009.89 1009.46 1009.08 1008.76 1008.51 1008.32 1008.16 1008.04 1007.94 1007.86 1007.80 1007.78 1007.83 1007.95 1008.18 1008.50 1008.92 1009.40 1009.92
1020.10 1019.56 1018.96 1018.30 1017.58 1016.84 1016.09 1015.36 1014.68 1014.05 1013.49 1012.98 1012.52 1012.09 1011.66 1011.23 1010.78 1010.33 1009.88 1009.45 1009.05 1008.71 1008.43 1008.20 1008.02 1007.88 1007.75 1007.64 1007.53 1007.43 1007.37 1007.35 1007.42 1007.58 1007.85 1008.22 1008.69 1009.22
1019.86 1019.30 1018.69 1018.01 1017.29 1016.53 1015.76 1015.02 1014.32 1013.69 1013.12 1012.61 1012.16 1011.74 1011.33 1010.92 1010.51 1010.08 1009.67 1009.26 1008.89 1008.57 1008.30 1008.07 1007.88 1007.72 1007.57 1007.41 1007.25 1007.09 1006.96 1006.86 1006.84 1006.92 1007.12 1007.44 1007.87 1008.38
1019.65 1019.08 1018.46 1017.78 1017.06 1016.31 1015.55 1014.82 1014.13 1013.51 1012.95 1012.46 1012.03 1011.63 1011.25 1010.87 1010.49 1010.10 1009.71 1009.32 1008.96 1008.64 1008.35 1008.10 1007.88 1007.67 1007.46 1007.24 1007.01 1006.77 1006.54 1006.36 1006.24 1006.22 1006.33 1006.58 1006.96 1007.45
1019.49 1018.92 1018.30 1017.63 1016.92 1016.18 1015.45 1014.74 1014.08 1013.48 1012.95 1012.49 1012.09 1011.72 1011.37 1011.03 1010.67 1010.30 1009.93 1009.55 1009.19 1008.85 1008.54 1008.25 1007.98 1007.71 1007.43 1007.13 1006.81 1006.48 1006.16 1005.87 1005.65 1005.54 1005.56 1005.73 1006.04 1006.50
1019.41 1018.83 1018.21 1017.55 1016.85 1016.14 1015.43 1014.75 1014.12 1013.55 1013.06 1012.63 1012.25 1011.92 1011.60 1011.28 1010.95 1010.60 1010.24 1009.88 1009.51 1009.15 1008.81 1008.48 1008.16 1007.82 1007.47 1007.09 1006.69 1006.27 1005.86 1005.49 1005.18 1004.98 1004.91 1005.00 1005.26 1005.66
1019.39 1018.81 1018.19 1017.53 1016.85 1016.16 1015.47 1014.82 1014.22 1013.68 1013.21 1012.80 1012.45 1012.13 1011.84 1011.54 1011.23 1010.91 1010.57 1010.21 1009.85 1009.49 1009.14 1008.78 1008.41 1008.03 1007.63 1007.19 1006.73 1006.24 1005.77 1005.32 1004.95 1004.68 1004.54 1004.57 1004.76 1005.11
1019.45 1018.86 1018.24 1017.59 1016.92 1016.24 1015.57 1014.94 1014.35 1013.83 1013.37 1012.97 1012.63 1012.32 1012.04 1011.76 1011.47 1011.17 1010.86 1010.53 1010.20 1009.86 1009.51 1009.15 1008.79 1008.39 1007.96 1007.50 1007.01 1006.50 1005.99 1005.51 1005.10 1004.78 1004.60 1004.58 1004.72 1005.01
1019.57 1018.98 1018.36 1017.72 1017.05 1016.38 1015.73 1015.10 1014.52 1014.00 1013.54 1013.14 1012.79 1012.48 1012.20 1011.93 1011.67 1011.40 1011.13 1010.85 1010.56 1010.27 1009.97 1009.66 1009.32 1008.95 1008.55 1008.10 1007.62 1007.12 1006.62 1006.15 1005.73 1005.41 1005.21 1005.16 1005.26 1005.50
1019.73 1019.15 1018.55 1017.91 1017.26 1016.60 1015.96 1015.34 1014.76 1014.23 1013.75 1013.33 1012.97 1012.65 1012.36 1012.10 1011.86 1011.63 1011.41 1011.20 1010.99 1010.77 1010.55 1010.31 1010.05 1009.75 1009.41 1009.02 1008.59 1008.14 1007.68 1007.25 1006.87 1006.57 1006.38 1006.32 1006.39 1006.59
1019.92 1019.36 1018.78 1018.17 1017.54 1016.91 1016.27 1015.66 1015.08 1014.53 1014.04 1013.60 1013.21 1012.87 1012.57 1012.32 1012.10 1011.92 1011.76 1011.62 1011.50 1011.39 1011.27 1011.13 1010.97 1010.76 1010.51 1010.21 1009.87 1009.49 1009.11 1008.75 1008.42 1008.17 1008.01 1007.96 1008.03 1008.19
1020.12 1019.60 1019.05 1018.48 1017.89 1017.28 1016.67 1016.07 1015.49 1014.93 1014.42 1013.95 1013.54 1013.17 1012.87 1012.62 1012.42 1012.28 1012.19 1012.13 1012.10 1012.09 1012.09 1012.07 1012.02 1011.92 1011.78 1011.58 1011.33 1011.05 1010.76 1010.48 1010.23 1010.04 1009.93 1009.91 1009.97 1010.12
1020.32 1019.84 1019.34 1018.82 1018.27 1017.70 1017.12 1016.54 1015.96 1015.40 1014.87 1014.38 1013.94 1013.56 1013.24 1012.99 1012.81 1012.71 1012.67 1012.68 1012.75 1012.84 1012.94 1013.03 1013.08 1013.10 1013.06 1012.96 1012.81 1012.63 1012.43 1012.23 1012.07 1011.95 1011.89 1011.91 1011.99 1012.13
1020.51 1020.08 1019.63 1019.15 1018.65 1018.12 1017.57 1017.01 1016.45 1015.89 1015.35 1014.84 1014.38 1013.97 1013.64 1013.39 1013.22 1013.15 1013.15 1013.23 1013.36 1013.54 1013.72 1013.90 1014.05 1014.15 1014.20 1014.20 1014.14 1014.04 1013.92 1013.81 1013.72 1013.67 1013.67 1013.72 1013.83 1013.98
Thickness
5529 5524 5519 5514 5509 5503 5496 5490 5486 5491 5493 5483 5474 5470 5464 5461 5459 5457 5456 5455 5456 5458 5460 5463 5467 5470 5474 5479 5483 5489 5494 5499 5505 5511 5517 5524 5531 5538
5513 5508 5503 5498 5492 5486 5480 5474 5467 5463 5469 5466 5456 5450 5445 5442 5440 5438 5437 5436 5438 5440 5444 5448 5452 5457 5462 5467 5473 5478 5483 5489 5495 5501 5508 5515 5522 5530
5496 5492 5486 5481 5476 5470 5464 5458 5450 5443 5445 5450 5439 5433 5427 5424 5422 5421 5421 5422 5424 5428 5432 5436 5441 5446 5451 5456 5462 5467 5472 5478 5484 5490 5497 5505 5512 5521
5480 5475 5470 5466 5461 5455 5449 5443 5435 5428 5423 5428 5426 5418 5413 5410 5410 5410 5411 5413 5415 5419 5423 5428 5433 5437 5442 5447 5452 5456 5461 5466 5472 5478 5486 5494 5502 5510
5465 5460 5457 5452 5448 5443 5437 5431 5424 5418 5411 5409 5413 5409 5405 5402 5401 5402 5403 5405 5408 5412 5417 5421 5425 5429 5434 5438 5442 5446 5450 5455 5461 5467 5474 5482 5490 5499
5452 5449 5445 5441 5436 5432 5427 5420 5414 5408 5404 5402 5403 5402 5400 5398 5395 5396 5398 5400 5402 5406 5410 5414 5417 5421 5425 5429 5433 5436 5440 5444 5450 5456 5463 5470 5478 5486
5440 5437 5434 5430 5427 5421 5416 5410 5405 5402 5400 5398 5399 5398 5397 5395 5394 5394 5396 5397 5400 5403 5406 5409 5412 5415 5418 5422 5426 5430 5434 5438 5443 5447 5452 5458 5465 5473
5427 5425 5421 5418 5415 5411 5406 5403 5400 5398 5397 5396 5397 5397 5398 5396 5396 5395 5396 5398 5401 5404 5404 5408 5410 5412 5415 5418 5422 5426 5430 5434 5437 5440 5444 5448 5454 5461
5414 5412 5410 5408 5405 5403 5401 5399 5397 5396 5397 5397 5399 5400 5399 5399 5398 5399 5400 5402 5405 5407 5405 5409 5411 5413 5416 5419 5422 5424 5426 5429 5432 5434 5437 5440 5445 5451
5403 5402 5400 5400 5399 5398 5397 5398 5399 5400 5401 5402 5402 5403 5404 5404 5404 5405 5406 5408 5411 5413 5412 5414 5416 5417 5420 5421 5422 5423 5424 5425 5427 5429 5431 5434 5437 5442
5395 5395 5395 5396 5396 5394 5395 5398 5401 5404 5407 5408 5408 5408 5408 5408 5408 5409 5411 5413 5417 5419 5418 5418 5419 5419 5420 5422 5423 5424 5424 5424 5424 5425 5427 5429 5431 5435
5390 5391 5392 5393 5393 5394 5396 5399 5403 5407 5409 5411 5412 5412 5412 5411 5410 5410 5410 5412 5415 5418 5417 5416 5416 5416 5418 5420 5422 5423 5423 5423 5423 5424 5425 5426 5428 5431
5387 5389 5391 5392 5394 5396 5398 5402 5405 5408 5410 5411 5412 5412 5412 5411 5410 5409 5408 5408 5410 5412 5411 5411 5412 5413 5414 5416 5419 5421 5422 5422 5423 5425 5427 5429 5431 5433
5385 5388 5390 5393 5396 5399 5402 5404 5407 5409 5411 5412 5412 5412 5411 5410 5408 5407 5407 5407 5407 5407 5408 5409 5410 5411 5412 5414 5416 5419 5422 5424 5425 5429 5433 5436 5438 5440
5384 5388 5392 5395 5398 5402 5404 5407 5409 5410 5412 5412 5412 5411 5409 5408 5407 5407 5408 5407 5407 5407 5408 5408 5409 5409 5410 5412 5414 5417 5421 5426 5430 5436 5443 5448 5451 5452
5385 5389 5393 5397 5400 5403 5406 5409 5410 5411 5412 5412 5412 5410 5409 5408 5407 5407 5408 5408 5408 5408 5408 5408 5408 5409 5410 5411 5413 5417 5421 5427 5434 5442 5449 5455 5459 5460
5385 5389 5393 5397 5400 5404 5407 5410 5412 5413 5414 5414 5413 5411 5409 5409 5408 5408 5408 5409 5409 5409 5410 5410 5410 5409 5409 5411 5414 5417 5421 5426 5433 5441 5448 5453 5457 5460
5385 5389 5393 5396 5400 5404 5407 5410 5413 5414 5415 5414 5413 5412 5411 5411 5410 5410 5410 5410 5410 5410 5411 5412 5414 5414 5413 5414 5411 5415 5419 5423 5427 5435 5443 5449 5453 5456
5385 5388 5392 5396 5400 5403 5407 5410 5413 5415 5416 5416 5415 5414 5414 5413 5412 5411 5411 5411 5411 5411 5412 5412 5413 5414 5416 5414 5412 5411 5416 5420 5424 5429 5434 5440 5446 5450
5384 5387 5391 5395 5399 5403 5407 5410 5413 5416 5417 5418 5418 5417 5417 5416 5414 5413 5413 5413 5413 5413 5412 5412 5410 5410 5410 5409 5408 5408 5412 5417 5421 5424 5427 5432 5437 5442
5384 5387 5390 5394 5398 5403 5407 5410 5413 5415 5417 5419 5421 5421 5420 5419 5418 5416 5415 5414 5414 5413 5412 5410 5408 5409 5411 5412 5410 5408 5409 5411 5417 5421 5425 5430 5434 5438
5384 5387 5390 5394 5398 5402 5406 5410 5413 5416 5418 5421 5423 5424 5424 5423 5422 5420 5419 5417 5415 5413 5411 5409 5408 5408 5409 5410 5409 5409 5409 5410 5412 5416 5420 5426 5431 5430
5384 5387 5390 5394 5398 5402 5406 5410 5413 5416 5419 5422 5425 5428 5429 5428 5427 5425 5423 5420 5418 5415 5413 5410 5407 5406 5405 5406 5407 5407 5408 5410 5412 5414 5411 5411 5416 5419